#timestamp,LO_Frequency,Hit,StdDev 
1541192415.3,286046998.2,N
1541192435.1,286046997.8,N
1541192455.9,286046997.1,N
1541192475.7,286046995.5,N
1541192495.5,286046998.0,N
1541192515.4,286046997.4,N
1541192535.2,286046997.9,N
1541192555.0,286046997.5,N
1541192555.9,286046997.5,N
1541192575.8,286046995.9,N
1541192595.6,286046995.5,N
1541192615.5,286046993.8,N
1541192635.3,286046995.4,N
1541192655.1,286046997.2,N
1541192675.9,286047001.1,N
1541192695.7,286047002.6,N
1541192715.5,286047002.4,N
1541192735.4,286047001.7,N
1541192755.2,286047003.0,N
1541192775.1,286047007.3,N
1541192776.0,286047007.3,N
1541192795.8,286047004.6,N
1541192815.6,286047007.2,N
1541192835.5,286047007.5,N
1541192855.3,286047008.0,N
1541192875.2,286047007.9,N
1541192895.9,286047006.6,N
1541192915.7,286047009.1,N
1541192935.6,286047006.3,N
1541192955.4,286047010.8,N
1541192975.2,286047009.8,N
1541192995.1,286047009.8,N
1541192996.0,286047009.8,N
1541193015.8,286047013.5,N
1541193035.7,286047011.3,N
1541193055.5,286047009.7,N
1541193075.3,286047008.1,N
1541193095.2,286047006.6,N
1541193115.0,286047003.1,N
1541193115.9,286047003.1,N
1541193135.8,286047005.3,N
1541193155.6,286047006.3,N
1541193175.4,286047008.7,N
1541193195.3,286047008.6,N
1541193215.1,286047008.0,N
1541193235.8,286047006.2,N
1541193255.7,286047004.5,N
1541193275.5,286047007.0,N
1541193295.4,286047009.0,Y
1541193315.2,286047002.3,P
1541193335.0,286046998.6,N
1541193335.9,286046998.6,N
1541193355.8,286046998.7,N
1541193375.6,286046997.2,N
1541193395.5,286046997.8,N
1541193415.3,286047000.7,N
1541193435.1,286046998.9,N
1541193455.9,286046999.6,N
1541193475.7,286046996.9,N
1541193495.5,286046998.9,N
1541193515.4,286046999.0,N
1541193535.2,286047000.5,N
1541193555.1,286046998.3,N
1541193556.0,286046998.3,N
1541193575.8,286047000.9,N
1541193595.6,286047000.4,N
1541193615.5,286047000.7,N
1541193635.3,286047001.1,N
1541193655.2,286046999.3,N
1541193675.9,286046998.6,N
1541193695.7,286046997.7,N
1541193715.6,286046997.7,N
1541193735.4,286046996.9,N
1541193755.2,286047001.0,N
1541193775.1,286046998.4,N
1541193776.0,286046998.4,N
1541193795.8,286046999.5,N
1541193815.7,286046997.9,N
1541193835.5,286046998.0,N
1541193855.3,286046999.1,N
1541193875.2,286047000.5,N
1541193895.0,286046998.1,N
1541193895.9,286046998.1,N
1541193915.8,286046998.8,N
1541193935.6,286046998.7,N
1541193955.4,286046999.4,N
1541193975.3,286046998.4,N
1541193995.1,286046999.6,N
1541194015.9,286046997.1,N
1541194035.7,286047000.8,N
1541194055.5,286047002.8,N
1541194075.4,286047001.9,N
1541194095.2,286047005.4,Y
1541194115.0,286047007.5,P
1541194115.9,286047007.5,N
1541194135.8,286047009.1,N
1541194155.6,286047007.1,N
1541194175.5,286047003.8,N
1541194195.3,286047001.5,N
1541194215.1,286047000.9,N
1541194235.9,286047002.6,N
1541194255.7,286047002.6,N
1541194275.5,286047002.2,N
1541194295.4,286047002.7,N
1541194315.2,286047000.3,N
1541194335.1,286046998.6,N
1541194336.0,286046998.6,N
1541194355.8,286047000.3,N
1541194375.6,286046998.8,N
1541194395.5,286047002.6,N
1541194415.3,286047000.3,N
1541194435.2,286046999.7,N
1541194455.9,286047000.5,N
1541194475.7,286047000.7,N
1541194495.6,286047000.4,N
1541194515.4,286047001.3,N
1541194535.2,286047002.7,N
1541194555.1,286047003.0,N
1541194556.0,286047003.0,N
1541194575.8,286047003.3,N
1541194595.7,286047005.6,N
1541194615.5,286047005.6,N
1541194635.3,286047003.4,N
1541194655.2,286047003.2,N
1541194675.0,286047004.8,N
1541194675.9,286047004.8,N
1541194695.8,286047005.0,N
1541194715.6,286047005.1,N
1541194735.4,286047006.9,Y
1541194755.3,286047007.1,P
1541194775.1,286047008.8,P
1541194795.8,286047007.4,N
1541194815.7,286047007.3,N
1541194835.5,286047006.0,N
1541194855.4,286047001.9,N
1541194875.2,286046998.7,N
1541194895.0,286046997.8,N
1541194895.9,286046997.8,N
1541194915.8,286046997.6,N
1541194935.6,286046997.8,N
1541194955.4,286046998.0,N
1541194975.3,286046995.6,N
1541194995.1,286046993.3,N
1541195015.9,286046996.4,N
1541195035.7,286046996.1,N
1541195055.5,286046994.0,N
1541195075.4,286046993.1,N
1541195095.2,286046992.6,N
1541195115.1,286046994.0,N
1541195116.0,286046994.0,N
1541195135.8,286046996.2,N
1541195155.6,286046994.0,N
1541195175.5,286046994.7,N
1541195195.3,286046992.1,N
1541195215.1,286046994.3,N
1541195235.9,286046991.9,N
1541195255.7,286046991.8,N
1541195275.6,286046993.6,N
1541195295.4,286046994.7,N
1541195315.2,286046994.3,N
1541195335.1,286046991.6,N
1541195336.0,286046991.6,N
1541195355.8,286046988.5,Y
1541195375.7,286046995.8,P
1541195395.5,286046993.8,P
1541195415.3,286046995.2,P
1541195435.2,286046999.0,N
1541195455.9,286047000.8,N
1541195475.7,286046997.3,N
1541195495.6,286046993.9,N
1541195515.4,286046992.0,Y
1541195535.3,286046996.0,P
1541195555.1,286046995.0,P
1541195556.0,286046995.0,P
1541195575.8,286046999.6,N
1541195595.7,286046998.3,N
1541195615.5,286047000.1,N
1541195635.3,286047001.0,N
1541195655.2,286047001.0,N
1541195675.0,286046998.5,N
1541195675.9,286046998.5,N
1541195695.8,286046996.9,N
1541195715.6,286046996.7,N
1541195735.4,286046996.5,N
1541195755.3,286046998.6,N
1541195775.1,286047001.0,N
1541195795.9,286047000.5,N
1541195815.7,286047002.3,N
1541195835.5,286047000.5,N
1541195855.4,286046996.6,N
1541195875.2,286047000.1,N
1541195895.0,286047002.2,N
1541195896.0,286047002.2,N
1541195915.8,286047000.2,N
1541195935.6,286047002.1,N
1541195955.5,286047000.7,N
1541195975.3,286047000.9,N
1541195995.1,286047001.1,N
